Wind_Speed
19 19 20 20 21 21 22 22 22 22 21 21 20 20 20 20 20 20 21 22 23 26 28 32 35 38 41 42 43 44 46 46 48 50 51 51 50 51 50 48 46 45 44 43 41 39 36 34 32 32 31 29 29 28 27 25 21 23 21 16 13 11 9 7 7 6 5 5 2 1 1 3 6 11 14 15 19 21 23 24 24 24 25 27 29 30 30 29
21 21 21 22 22 23 23 23 23 24 24 24 23 23 22 22 22 22 22 23 24 25 27 31 34 37 40 42 44 45 46 47 48 50 52 52 51 52 51 50 48 47 46 45 43 41 38 35 34 34 33 31 29 29 29 26 23 25 23 17 15 13 12 9 7 8 6 6 5 2 1 1 4 9 12 14 18 18 20 22 22 22 23 26 28 30 30 29
23 23 23 24 24 24 25 25 25 25 25 26 26 26 25 25 25 24 24 24 25 26 27 30 32 36 39 41 44 45 46 47 49 51 52 52 52 52 52 52 50 49 48 47 45 42 40 38 36 35 35 33 31 29 29 28 26 28 25 18 15 14 16 12 9 9 7 7 8 5 3 3 4 7 9 12 16 15 18 20 20 21 22 25 27 30 31 30
25 25 25 26 26 26 26 26 27 27 27 27 28 29 29 29 28 27 26 26 26 27 28 30 32 35 37 40 43 45 47 47 49 52 52 52 53 53 53 53 53 52 50 48 46 44 43 40 38 37 37 35 32 30 30 31 29 28 25 18 16 16 17 12 9 10 7 7 9 6 4 5 6 5 5 10 13 13 16 18 18 20 20 23 26 29 32 31
26 26 27 27 28 28 28 28 28 28 29 29 29 30 30 31 31 31 30 29 28 28 29 30 32 34 37 39 41 45 47 47 50 52 53 52 53 54 55 55 54 54 52 50 48 46 45 42 40 38 38 37 34 32 31 32 31 28 25 20 18 18 18 13 9 9 8 9 10 7 6 5 6 4 5 8 10 10 14 15 15 18 19 21 23 27 31 31
26 27 28 29 29 29 29 30 29 30 30 30 31 31 32 33 33 34 33 32 32 31 31 32 33 34 36 39 41 44 45 48 52 53 53 54 53 55 56 56 56 55 54 52 50 49 46 44 42 40 39 39 36 33 33 33 32 31 28 25 21 19 18 14 12 12 11 11 10 7 7 5 6 5 5 5 7 9 11 12 13 17 18 20 21 24 29 31
27 28 29 30 30 31 31 31 31 31 31 32 33 33 34 35 36 36 36 36 35 35 35 34 34 35 37 39 40 43 44 48 52 52 52 54 54 56 57 57 58 57 55 54 52 50 48 46 44 43 41 41 38 35 36 36 34 33 30 29 24 21 19 14 16 19 14 12 11 8 9 8 7 6 6 4 5 7 9 9 12 15 16 18 19 21 24 27
28 29 29 30 31 31 32 32 33 33 33 34 35 36 36 38 39 39 39 40 39 39 39 38 38 37 38 39 40 43 43 46 52 52 53 54 54 57 58 58 59 58 57 55 54 52 50 48 46 45 42 43 41 37 38 37 34 34 32 30 27 22 21 19 21 23 17 14 12 11 11 11 9 7 6 5 4 5 6 7 10 12 14 16 17 19 21 23
29 30 31 31 32 33 33 34 34 35 35 36 37 38 39 40 42 43 43 43 43 43 42 42 42 40 40 40 41 42 40 47 54 52 53 55 55 57 58 58 59 59 59 57 56 55 53 50 48 47 45 44 43 40 39 36 35 36 35 33 30 24 23 23 23 22 18 14 13 13 13 11 9 7 6 6 4 3 3 5 7 10 12 14 16 16 17 20
31 31 32 33 34 34 35 35 36 37 38 39 40 41 42 43 44 45 46 46 46 46 46 46 45 45 44 42 43 42 39 48 54 51 53 56 56 58 59 59 60 60 61 59 58 57 54 52 50 49 48 46 45 43 41 38 36 36 35 35 34 30 26 25 23 24 22 16 14 14 14 13 12 9 7 6 4 2 2 3 5 8 10 11 13 14 15 17
33 33 34 35 36 36 36 37 38 39 40 41 43 43 45 46 47 48 48 49 49 49 50 50 49 49 47 46 45 41 40 49 54 52 54 56 57 59 59 60 61 61 61 61 60 58 56 55 52 52 51 48 46 44 43 41 39 37 36 36 36 34 32 29 27 27 27 22 17 16 15 16 16 14 10 8 6 4 3 1 3 6 8 9 11 12 13 14
35 35 36 36 37 38 38 39 40 42 43 44 46 47 48 49 50 50 51 51 51 51 52 52 53 52 51 50 46 40 44 53 56 54 55 56 58 59 60 61 61 62 62 62 62 60 59 57 54 54 53 51 48 46 44 43 42 40 36 36 36 36 34 32 29 27 28 26 21 17 16 16 18 18 14 11 9 8 7 4 2 5 6 8 8 10 11 12
36 37 37 38 38 39 40 41 42 44 45 47 49 51 52 53 53 53 52 52 52 53 53 54 55 55 55 52 47 47 52 56 55 54 55 57 58 59 61 61 62 63 63 63 63 62 61 60 58 56 55 54 51 49 45 45 45 41 37 36 35 34 36 34 32 29 27 26 23 19 17 16 18 19 16 13 12 10 10 7 3 5 6 6 7 8 10 10
38 38 39 39 40 40 41 42 44 46 48 50 52 54 55 55 54 53 52 52 52 53 54 55 55 57 57 55 53 55 56 56 55 55 55 57 58 60 61 62 63 64 64 64 64 64 64 62 60 58 58 56 53 52 48 47 48 41 36 37 32 31 36 35 32 29 25 24 23 21 19 18 18 17 16 15 12 10 12 11 6 7 6 6 6 6 8 9
39 40 40 41 41 41 42 43 45 48 51 53 55 56 56 55 53 52 52 51 52 53 54 55 56 57 58 59 59 58 57 58 57 55 56 57 59 60 62 63 64 64 65 65 65 66 67 65 63 61 60 58 55 55 51 50 50 39 34 38 33 29 33 35 30 27 26 25 24 24 22 18 18 16 14 14 12 9 13 14 11 9 7 6 6 6 6 7
41 41 42 42 42 42 42 44 47 50 53 56 57 57 55 54 54 53 52 52 52 52 54 55 57 58 59 61 62 60 61 60 58 57 58 58 59 61 62 64 64 65 65 65 66 68 68 66 65 63 61 60 59 57 55 54 53 43 36 40 39 32 31 34 32 29 30 29 27 28 24 20 20 18 12 11 12 10 13 16 14 10 7 6 7 6 6 6
42 42 42 42 42 42 43 45 49 52 55 57 58 57 57 57 56 55 53 52 51 51 53 55 57 59 60 62 62 62 62 61 61 61 60 60 60 61 63 65 65 66 66 66 67 68 68 68 67 65 63 63 61 59 57 57 56 48 42 43 44 40 33 30 31 31 32 32 29 29 27 23 22 20 13 11 14 14 16 20 18 13 8 7 7 7 6 5
43 43 43 42 42 42 44 47 51 54 57 58 58 59 59 59 57 54 51 49 49 49 52 55 58 60 60 61 62 63 63 64 65 64 63 62 62 63 64 65 66 67 67 67 68 68 69 70 70 68 65 64 63 62 59 59 59 54 47 45 43 43 39 33 31 32 33 34 32 30 29 26 24 22 18 16 16 18 21 24 23 16 11 9 8 8 7 5
43 43 42 42 41 43 46 50 54 56 58 59 61 61 61 59 56 52 48 46 45 47 50 54 58 61 62 63 64 65 67 69 69 67 65 64 64 64 64 65 67 68 68 68 68 69 70 71 71 70 68 66 65 64 62 62 63 60 54 48 42 41 43 40 36 34 33 35 35 33 32 29 27 25 24 21 18 18 22 26 26 20 13 11 10 9 7 6
43 42 41 41 42 45 49 53 56 58 60 61 62 63 61 58 54 49 44 41 41 44 48 53 58 62 63 64 65 67 70 71 70 69 67 66 66 66 65 66 67 68 69 69 68 69 70 71 71 71 71 69 68 67 66 66 65 65 60 52 45 41 41 41 39 35 34 35 35 34 32 31 30 27 27 27 22 20 23 25 26 22 16 13 12 10 8 7
42 41 40 40 43 47 51 55 58 60 62 63 63 63 61 57 51 45 40 37 37 40 45 51 58 62 64 66 68 70 72 72 72 71 70 69 68 68 68 68 68 69 70 70 69 69 70 71 72 73 74 72 71 70 70 69 67 66 65 58 50 44 40 40 39 35 33 35 35 33 30 30 31 28 27 29 27 25 26 26 24 23 19 15 13 12 10 8
40 39 39 40 45 49 53 56 59 61 63 64 64 63 60 55 47 40 34 31 32 35 41 47 55 62 66 69 72 72 73 74 74 74 73 72 71 70 70 69 69 70 71 71 70 69 70 71 73 75 76 75 74 74 72 71 68 67 68 65 57 49 45 43 39 35 34 35 34 33 30 29 31 30 28 29 28 27 29 27 23 22 20 16 14 13 11 10
39 38 38 42 47 51 55 57 60 62 64 65 64 62 57 51 42 35 30 27 27 31 36 42 50 59 67 70 73 74 75 75 76 76 75 74 73 72 71 70 69 70 71 71 70 70 71 73 75 77 78 77 77 76 72 69 68 69 69 67 63 55 50 47 42 36 35 35 34 33 30 31 32 31 29 28 27 27 29 30 25 22 19 16 15 14 13 12
37 37 39 44 49 52 55 58 61 63 65 64 63 60 54 46 37 30 27 24 24 27 32 38 45 54 64 71 74 75 76 76 77 77 76 76 74 72 71 71 71 71 71 70 71 71 72 74 77 78 79 79 79 76 72 70 71 71 70 69 66 60 54 50 46 40 37 38 38 35 34 36 34 32 30 28 27 27 30 31 29 24 20 17 15 14 14 14
36 37 41 46 50 53 56 59 62 64 65 65 63 59 51 41 33 27 24 22 21 24 28 34 40 48 58 68 73 76 77 78 78 78 78 77 75 73 73 73 73 72 71 72 72 72 73 76 78 79 78 79 80 77 75 76 74 71 72 71 68 63 56 52 50 45 40 40 39 36 37 38 34 31 30 27 28 28 29 31 31 27 22 19 17 16 16 15
35 38 43 47 51 54 56 59 62 64 65 65 63 58 48 38 31 26 23 21 19 20 24 29 36 43 52 62 71 76 79 80 80 80 80 78 76 75 75 74 74 75 74 73 72 72 74 76 77 78 78 78 80 80 79 78 74 73 74 73 70 65 58 53 53 50 45 43 38 35 37 37 34 32 31 31 32 30 30 32 30 26 22 18 17 17 17 17
36 40 44 48 51 54 57 60 62 64 65 65 62 56 45 35 29 26 23 19 17 17 20 25 32 39 46 56 67 75 78 80 80 81 81 79 79 78 77 76 76 75 73 72 71 72 74 75 77 79 78 78 80 81 80 78 77 76 74 72 71 67 60 56 56 54 49 47 43 38 37 36 34 32 32 34 36 33 30 29 28 26 24 21 19 20 20 18
37 41 45 49 52 54 56 59 62 64 66 65 62 54 42 33 28 25 22 18 15 14 16 21 28 34 42 51 61 70 76 80 81 82 81 81 81 81 80 79 77 75 73 72 71 74 76 77 79 79 76 77 80 81 81 80 81 79 74 73 71 68 63 60 58 55 51 49 46 42 40 39 36 32 31 34 38 38 34 30 32 32 30 26 22 22 21 20
38 42 46 50 52 54 56 59 62 65 66 65 62 53 41 31 27 24 21 17 13 12 13 18 24 30 38 46 55 66 75 80 82 82 81 81 82 82 80 79 77 76 74 73 75 77 78 77 76 75 75 78 80 82 83 83 84 80 74 73 70 69 67 63 60 56 51 49 47 44 44 45 42 36 33 36 39 42 40 39 40 37 32 28 26 25 23 22
39 43 47 50 52 55 57 59 62 65 66 65 61 53 40 31 26 24 21 17 13 11 11 15 21 27 34 41 50 60 71 77 80 82 82 82 82 82 81 79 78 77 74 75 79 78 75 73 74 75 78 80 82 83 84 84 84 79 75 73 70 72 73 68 65 60 54 52 49 45 46 48 48 42 36 38 40 42 43 42 42 38 32 30 29 28 27 24
40 44 47 50 52 55 57 59 62 65 66 65 61 52 39 30 25 23 20 17 13 10 10 13 18 24 30 37 45 55 65 73 79 83 83 82 82 82 80 80 80 78 76 78 79 76 72 71 72 75 78 80 82 82 82 84 84 80 76 74 72 75 78 75 71 65 62 60 52 46 47 50 52 48 39 36 38 42 43 43 42 39 35 33 33 34 31 27
40 44 47 50 52 55 57 60 63 66 67 66 62 52 39 30 25 21 19 17 12 9 10 12 16 22 27 34 41 49 58 69 78 82 83 84 85 84 82 82 81 79 79 81 79 75 73 70 70 74 77 79 80 78 79 83 84 81 78 79 78 78 79 78 75 70 68 67 58 49 47 48 52 53 45 37 36 39 42 45 45 41 38 35 36 38 35 30
41 44 47 50 52 54 57 60 63 66 67 67 64 54 39 29 24 20 17 15 11 8 8 10 14 19 25 31 38 44 52 64 74 81 83 85 85 84 85 85 83 81 83 84 81 77 74 71 72 77 79 81 80 80 81 83 84 82 80 81 82 81 80 80 80 76 72 71 66 57 51 48 50 55 51 42 37 37 39 43 45 43 41 39 40 42 37 30
41 44 47 50 52 54 57 60 63 65 67 67 65 58 43 29 23 20 17 14 11 8 7 8 11 16 21 26 33 40 49 58 69 78 82 84 84 84 86 86 84 85 86 85 81 78 76 75 76 80 82 82 83 84 84 83 82 82 82 84 84 82 81 81 81 80 77 74 70 64 58 53 51 54 54 48 42 40 39 41 43 43 42 43 45 43 36 31
41 44 46 49 51 53 56 59 62 64 67 68 67 61 48 32 23 20 17 14 11 8 6 6 8 12 17 23 29 37 45 53 62 72 80 83 85 86 87 86 86 88 88 84 81 78 77 77 78 81 83 82 84 87 85 82 82 83 84 86 86 83 82 82 81 82 81 77 72 65 60 58 55 53 54 52 48 44 42 41 42 43 44 44 44 41 36 33
40 43 46 48 51 53 56 58 61 64 66 67 67 64 53 38 25 19 16 14 11 9 7 7 7 9 14 20 27 33 40 48 56 66 75 81 85 87 87 87 89 90 88 86 84 81 80 81 83 83 83 82 85 87 84 82 83 83 84 86 86 85 85 83 82 83 82 80 76 68 61 60 58 54 54 55 52 48 44 42 42 43 43 42 41 38 36 35
40 43 45 48 50 53 56 58 61 64 66 68 67 65 58 44 30 21 17 14 12 10 8 7 8 9 12 17 24 30 37 45 54 63 72 80 85 87 89 90 91 90 88 85 84 83 84 85 84 83 83 83 84 85 84 83 83 82 84 87 88 88 86 84 83 83 82 81 79 74 66 62 60 56 55 57 55 51 45 42 43 44 43 42 41 40 39 39
39 42 44 47 50 52 55 58 60 63 66 68 68 67 62 50 36 24 18 14 13 12 10 8 9 10 10 14 19 26 33 42 51 60 69 78 83 86 89 90 90 89 86 84 84 83 83 81 79 80 82 81 81 83 83 82 82 81 83 87 88 88 87 85 83 82 81 81 80 78 74 68 62 59 58 58 58 54 47 44 45 45 44 43 43 43 42 42
39 42 44 46 48 51 54 57 59 62 65 68 69 68 64 56 42 29 20 15 14 13 11 10 11 9 9 12 16 23 30 38 47 56 65 73 80 85 88 89 89 88 86 85 86 85 83 81 79 79 79 77 78 81 82 82 83 84 84 84 85 86 86 86 85 84 83 83 82 82 81 76 69 64 60 60 60 55 49 47 47 45 44 43 43 44 43 43
39 41 43 45 47 50 53 55 58 61 63 66 68 68 66 60 49 35 24 17 14 13 12 12 12 10 10 12 15 20 27 35 42 51 60 68 76 83 87 87 87 86 85 86 86 85 84 82 80 80 80 77 77 80 82 82 84 85 85 84 84 85 85 85 85 85 84 84 84 85 85 81 75 69 63 61 60 54 47 47 48 46 45 44 43 44 43 42
39 40 42 44 47 49 52 54 57 60 62 65 67 68 67 63 55 42 29 20 15 13 13 14 14 13 12 13 14 17 24 32 38 46 55 64 73 80 84 85 85 85 86 86 86 87 87 84 82 82 82 80 81 82 82 83 85 86 86 84 84 85 87 88 87 86 86 86 86 86 86 85 80 74 68 63 60 54 45 45 49 49 48 46 44 43 43 43
38 40 41 43 46 48 51 53 55 58 61 64 66 67 67 65 59 47 34 24 18 14 13 14 16 16 15 16 16 16 21 27 33 42 50 59 68 74 78 81 83 85 88 90 91 93 90 85 83 82 82 83 84 83 83 84 86 87 87 86 85 86 89 90 89 88 88 87 87 87 86 86 82 78 75 67 61 57 49 45 47 49 49 47 44 43 44 45
38 39 41 42 45 48 51 53 55 57 60 62 64 66 66 65 62 53 41 29 21 16 13 13 15 16 18 19 18 18 19 22 28 36 44 51 59 66 73 79 82 86 90 92 93 92 87 83 82 82 83 84 83 82 84 85 87 89 89 87 86 87 88 89 89 90 90 90 91 90 87 86 84 82 79 69 61 59 55 51 48 45 48 48 45 45 46 46
38 39 41 42 44 47 50 52 54 56 59 61 63 65 66 65 63 57 48 36 26 19 15 14 14 15 18 20 21 20 21 22 25 30 37 44 51 59 67 75 81 87 90 90 89 86 84 83 83 83 83 83 83 84 85 86 87 88 88 85 86 87 87 88 90 90 91 91 91 91 89 87 86 85 80 70 61 54 51 53 50 44 46 49 47 47 48 47
38 39 40 41 43 46 49 51 54 56 58 60 61 64 65 65 64 60 53 42 32 24 18 15 15 15 17 19 21 22 23 23 24 27 31 37 44 52 61 70 78 83 86 87 86 86 86 86 84 85 84 84 86 87 86 86 85 84 84 84 87 89 88 88 89 90 91 91 92 93 92 88 85 85 80 75 71 61 49 48 49 46 46 49 48 48 48 46
37 39 39 41 43 45 48 50 53 55 57 59 60 62 64 65 64 62 57 48 38 29 23 18 16 16 16 17 20 22 23 23 24 25 28 33 39 47 55 65 73 79 83 86 87 87 88 87 86 87 87 86 87 87 86 86 84 83 84 87 89 90 89 89 90 91 92 93 96 97 94 88 85 84 82 80 79 72 59 49 45 44 46 49 51 51 50 49
37 39 39 40 42 44 47 49 52 54 56 58 59 61 63 64 64 62 59 53 43 34 26 21 18 16 17 17 18 21 22 23 24 25 27 31 36 43 51 60 69 75 80 85 88 89 89 88 88 89 88 87 87 86 85 84 84 84 85 88 90 90 91 93 92 92 92 95 97 97 93 90 88 85 84 84 81 75 67 57 48 45 46 48 53 56 54 52
37 39 40 41 42 44 46 48 51 53 56 57 59 60 62 64 64 62 60 56 49 39 29 23 19 17 16 17 18 20 21 21 23 24 27 29 33 40 48 57 64 70 76 83 88 89 89 89 90 89 89 88 87 86 87 86 86 86 87 90 92 92 94 96 94 93 93 94 96 97 94 92 90 88 87 88 85 77 68 56 49 49 49 49 54 58 57 53
36 38 39 41 43 44 46 48 50 52 55 57 58 59 61 63 63 62 60 59 53 44 33 25 21 19 17 16 17 20 20 20 22 24 25 28 32 37 44 51 59 66 73 81 86 87 87 89 90 89 89 88 86 87 88 88 88 88 89 91 92 92 93 93 92 93 94 93 96 97 95 92 91 91 89 88 88 85 76 60 50 51 51 48 51 54 53 54
36 37 39 41 43 45 46 48 50 52 54 56 58 59 60 62 63 62 60 59 56 49 38 28 23 21 19 17 17 19 20 20 22 23 24 27 30 34 40 46 53 61 70 77 81 82 86 88 89 90 89 87 87 88 89 88 89 89 90 91 91 91 90 89 90 93 93 93 94 94 92 92 92 93 92 89 88 89 88 78 66 59 50 40 42 48 48 51
35 37 38 40 42 45 46 47 49 51 53 55 57 59 60 62 63 62 60 60 58 53 43 32 25 22 20 18 18 19 19 20 22 23 24 27 29 33 39 43 48 55 64 71 76 81 86 88 89 90 90 89 89 91 91 90 91 92 92 91 90 89 89 88 90 93 93 93 93 90 89 91 92 94 93 91 89 89 89 86 79 72 63 48 39 42 46 48
34 36 38 40 42 44 46 47 49 50 53 55 57 58 60 61 63 62 61 60 60 57 48 37 28 23 21 20 19 19 19 20 22 23 24 26 29 32 37 41 45 51 58 66 74 80 84 86 88 90 91 91 92 92 91 91 92 92 92 91 89 89 89 89 91 93 94 94 92 89 88 89 92 94 92 88 89 91 90 86 80 76 77 72 60 53 52 51
Wind_Direction
293 293 293 293 294 296 297 298 298 297 295 292 289 286 283 279 273 268 263 257 250 245 240 234 230 227 225 223 223 221 218 216 218 218 215 213 213 214 214 214 214 214 214 213 213 210 207 202 199 195 193 195 197 199 200 200 204 208 215 217 221 232 228 239 242 256 261 210 193 76 64 359 1 6 6 7 9 7 9 14 17 20 27 32 31 29 29 26
293 292 290 290 290 292 293 293 294 294 293 292 290 287 284 281 277 272 267 262 256 250 245 240 234 230 227 225 223 222 221 218 217 218 217 214 212 213 214 214 213 213 213 213 213 211 208 204 200 196 194 194 196 199 201 202 207 210 215 216 219 233 232 232 242 249 251 224 217 234 260 341 351 0 5 3 5 5 4 10 17 20 27 32 32 30 29 26
294 292 291 289 289 289 290 290 291 291 292 291 291 289 287 284 280 276 270 265 260 255 250 245 240 235 230 228 226 223 222 220 218 217 217 215 213 212 213 214 213 213 213 213 213 211 208 205 201 197 193 193 194 197 201 205 209 211 214 220 222 227 230 233 237 234 245 237 223 236 256 238 286 339 360 354 358 2 359 4 16 21 25 32 34 31 29 26
293 292 291 290 289 289 288 288 289 289 289 289 288 288 287 286 283 279 275 269 263 258 254 249 244 239 234 231 228 226 223 222 220 218 217 216 215 213 212 213 214 213 213 213 212 211 209 206 203 198 194 193 193 195 202 205 208 211 212 222 230 226 228 229 224 227 243 237 220 228 241 242 269 311 331 336 352 359 357 1 17 24 24 31 35 32 30 28
293 292 291 290 290 289 288 287 287 287 286 286 285 284 284 283 282 280 277 273 268 262 257 252 247 242 239 234 231 228 226 224 222 219 217 216 216 214 212 212 214 214 213 212 212 212 209 206 203 200 195 192 191 196 203 205 206 208 210 219 230 229 228 219 206 219 237 229 218 221 226 253 279 297 301 326 352 356 358 4 19 27 26 30 35 34 34 33
294 293 292 291 290 289 288 287 285 285 284 284 284 283 282 280 280 278 276 274 270 266 261 255 249 244 241 238 234 231 228 227 224 219 218 216 215 216 214 212 212 214 213 211 211 212 210 206 204 201 197 192 191 197 202 204 206 206 209 215 222 229 230 218 205 215 230 223 214 215 214 239 275 283 285 324 358 349 360 11 21 28 29 30 34 36 37 36
297 296 294 292 291 290 288 287 285 284 283 283 282 282 281 279 277 275 274 272 270 268 263 258 252 247 242 239 236 233 230 230 226 221 220 217 216 216 215 213 212 213 214 212 211 211 210 207 204 202 198 194 194 199 201 202 205 205 208 216 219 227 233 224 214 218 220 213 213 219 216 224 249 264 268 301 346 339 359 16 19 27 29 29 34 38 38 37
301 300 297 295 293 291 288 286 284 283 282 282 282 282 281 280 277 275 273 270 268 266 263 260 255 249 244 240 237 234 233 234 228 222 221 218 217 217 215 215 213 212 212 213 211 210 210 207 204 202 199 196 196 199 201 201 205 204 206 214 217 220 226 227 227 226 215 206 217 227 227 228 237 247 255 280 321 332 357 19 17 23 28 27 33 38 38 36
304 303 300 296 293 290 288 286 284 283 283 282 282 282 281 279 278 276 274 271 268 265 262 259 256 252 246 241 237 233 233 236 229 223 223 219 217 217 215 214 213 212 211 212 212 210 209 208 205 202 200 198 197 199 200 199 204 206 205 211 215 215 220 227 233 233 223 215 222 226 230 235 240 241 244 270 301 322 353 29 20 17 24 24 29 36 38 37
306 305 302 299 295 292 289 287 285 284 283 283 282 281 280 279 277 275 273 270 268 265 262 259 255 252 247 242 238 232 232 237 231 225 225 222 219 218 216 214 213 213 211 210 211 210 209 207 205 203 201 200 198 199 199 199 203 205 206 210 214 215 217 225 228 229 229 227 226 226 233 244 250 246 237 258 276 259 311 20 18 10 16 19 24 31 36 37
307 306 304 301 298 295 291 288 286 284 284 284 283 283 282 281 279 276 273 270 266 263 261 258 255 252 248 243 237 231 233 237 232 226 225 223 220 218 216 215 213 212 211 210 210 210 209 207 205 203 203 201 199 198 198 200 201 201 206 210 214 215 215 220 225 227 228 228 231 235 243 250 251 245 233 240 247 222 224 306 346 353 5 10 16 23 31 36
306 306 305 303 300 296 292 289 286 285 285 286 287 287 286 285 283 279 275 271 266 262 258 256 254 252 248 243 236 230 235 236 231 227 225 224 221 219 217 215 214 212 212 211 209 209 209 208 205 203 204 202 199 198 198 200 200 199 205 210 213 216 215 217 222 224 225 226 231 237 247 254 251 242 229 230 235 225 215 219 302 321 343 360 8 15 22 32
305 305 305 304 302 298 293 289 287 287 288 289 290 290 290 288 285 281 276 271 267 262 257 253 251 249 247 243 236 231 233 233 230 226 225 224 222 220 218 215 214 213 211 211 209 208 208 208 205 203 204 203 200 199 198 200 201 198 202 209 211 214 215 215 218 220 220 223 229 235 242 248 250 236 218 221 234 239 234 222 262 295 310 339 354 6 12 22
306 305 305 305 303 299 294 291 289 290 291 293 293 293 292 290 286 282 277 272 266 261 257 252 248 245 244 241 236 233 233 232 229 226 224 225 223 220 219 216 214 213 211 211 210 208 207 207 206 203 203 204 202 200 197 199 201 198 203 208 206 208 212 211 214 217 213 217 225 229 231 233 241 228 209 216 230 250 251 237 255 278 284 312 331 351 1 11
307 307 306 306 304 301 296 293 292 293 295 296 297 296 295 292 288 284 279 273 267 260 255 250 246 242 240 238 236 233 232 231 228 225 224 223 223 221 219 217 215 213 212 210 209 209 207 206 206 204 202 202 203 201 198 198 199 200 204 208 205 204 208 206 205 205 203 210 218 220 220 220 226 225 217 219 224 250 254 241 248 261 268 292 307 328 344 360
309 308 308 307 305 302 298 295 296 297 299 301 301 300 298 296 293 288 282 275 267 260 253 248 243 239 236 234 233 231 230 229 227 225 223 222 222 221 219 217 215 213 212 210 209 209 208 206 206 206 203 202 203 202 199 199 200 202 204 207 207 204 207 207 201 196 197 205 213 216 218 218 219 223 232 232 229 240 245 240 241 245 258 278 289 306 325 344
311 310 309 308 306 303 300 299 300 303 304 305 305 305 303 301 297 292 285 276 267 258 251 245 240 236 233 231 230 229 228 228 226 225 223 220 220 220 219 217 215 214 212 210 210 209 208 206 205 205 204 202 203 202 200 200 201 203 205 207 208 207 207 208 206 201 200 205 211 216 222 226 224 222 226 237 241 241 236 239 240 239 250 267 278 288 301 323
312 311 310 309 307 304 303 304 306 308 310 310 310 309 307 305 300 294 286 276 266 256 247 241 236 233 230 227 226 225 225 225 225 223 222 220 218 218 219 217 215 214 213 211 210 209 207 207 205 204 204 203 204 203 201 201 201 202 205 206 208 211 211 210 210 208 207 211 214 216 219 225 229 225 221 229 245 243 237 239 240 238 245 258 268 273 281 300
313 312 312 310 308 308 309 311 313 314 314 315 314 313 311 308 303 297 288 277 265 254 244 237 232 228 225 223 222 221 221 222 222 221 220 219 218 217 217 217 215 214 213 212 210 208 207 207 205 203 203 203 204 204 203 202 202 202 204 203 202 209 213 213 213 211 209 212 216 218 219 224 233 231 223 226 241 249 247 245 240 238 241 249 255 258 265 279
314 314 313 312 312 314 316 317 318 318 319 319 318 316 315 312 307 300 291 278 265 252 241 233 228 225 222 220 219 218 219 220 220 219 219 219 218 216 215 216 215 214 213 212 210 209 208 207 206 204 202 203 204 205 204 204 203 202 203 202 200 202 207 210 212 213 214 213 216 221 224 229 236 233 225 226 236 249 257 254 242 234 237 242 244 245 251 264
315 316 315 315 318 320 321 321 322 322 322 322 321 320 319 316 311 303 293 279 264 251 240 231 225 221 219 217 216 215 216 217 218 217 217 217 217 216 214 214 214 214 213 212 210 209 208 207 206 204 203 202 203 205 205 204 204 204 204 203 202 200 200 203 204 208 214 215 215 219 224 232 236 234 230 229 234 242 253 256 242 230 233 237 236 236 239 250
317 317 318 320 323 324 324 325 325 325 325 325 325 324 323 319 314 305 293 279 264 251 240 230 223 218 216 214 213 213 213 214 215 216 215 215 215 215 214 212 213 213 213 212 210 209 208 207 206 205 204 202 202 206 206 204 204 205 205 204 204 203 201 200 198 200 207 211 212 213 219 230 233 233 231 230 233 238 246 252 241 227 230 232 231 232 233 240
319 320 322 325 327 327 327 328 328 327 328 329 329 328 326 322 315 306 295 280 264 250 240 231 223 217 214 212 211 210 210 211 213 214 214 214 214 214 213 212 212 213 213 211 210 209 208 207 207 205 204 203 203 205 206 205 205 207 206 204 205 205 203 201 198 200 205 206 205 206 212 221 226 229 230 231 233 234 240 245 240 230 227 226 228 231 232 237
321 323 327 329 329 329 330 330 330 330 331 332 332 332 330 324 317 309 298 285 267 251 239 231 224 218 214 211 210 208 208 209 210 212 213 213 213 213 213 212 211 211 212 211 210 209 208 208 208 206 204 203 203 204 204 205 206 207 206 204 204 204 203 202 200 201 206 204 201 205 213 220 226 230 230 232 234 231 233 238 243 242 231 224 228 231 232 235
323 327 331 332 331 332 333 333 333 334 335 336 336 336 333 327 320 313 304 291 273 255 241 230 224 219 215 211 209 207 207 207 208 210 211 212 212 212 212 212 210 210 210 210 210 209 209 209 208 207 204 203 204 203 203 206 206 207 207 204 203 204 203 203 201 201 204 201 200 207 215 221 226 228 226 229 232 230 231 235 242 244 234 227 229 230 230 232
326 331 334 333 333 335 336 336 337 338 339 340 340 339 336 330 324 319 311 298 281 260 242 230 223 219 215 212 209 207 206 205 206 208 209 210 211 211 212 212 211 209 209 210 209 209 209 209 209 208 205 204 205 204 203 206 206 207 207 205 204 203 202 202 200 201 204 201 200 205 212 217 220 220 220 226 230 230 232 232 233 235 234 238 237 230 229 231
331 335 335 334 335 337 338 339 340 342 343 344 344 342 339 334 328 324 317 306 289 267 246 231 223 218 214 212 210 207 206 205 205 206 207 208 209 210 211 212 212 210 208 209 209 210 210 209 209 208 206 204 205 205 204 205 207 208 207 205 205 204 203 204 202 204 207 205 205 206 207 209 213 216 218 223 227 230 229 223 222 230 242 254 247 232 229 231
335 337 336 335 337 339 341 342 344 346 347 347 347 345 342 336 331 327 323 314 298 273 249 232 222 217 213 211 210 208 206 204 205 206 206 207 208 209 209 210 211 210 208 208 209 211 210 208 209 208 206 206 206 205 205 205 207 208 207 206 205 204 205 205 204 205 208 208 208 210 209 206 207 209 212 216 221 225 223 220 226 237 247 254 246 232 229 231
338 338 336 337 339 341 343 345 347 349 350 350 349 347 344 339 334 331 327 321 306 278 252 233 222 216 212 210 209 208 206 204 204 205 206 207 208 209 209 209 211 210 208 208 209 211 210 208 208 207 207 208 206 205 205 206 208 207 207 207 205 204 206 206 204 204 207 206 205 208 210 208 205 204 207 211 216 221 224 228 233 240 245 245 240 234 231 231
339 338 337 338 341 343 344 347 350 353 354 354 352 349 346 341 335 332 329 326 312 285 256 235 224 216 212 210 208 207 206 204 204 204 205 206 208 209 209 208 210 210 209 210 210 211 210 208 207 206 207 208 207 205 205 207 208 206 206 207 205 205 207 207 205 205 206 204 201 203 207 207 206 204 206 210 214 221 227 232 236 238 235 232 234 238 237 232
339 338 338 340 342 344 347 350 353 355 356 356 355 352 347 342 336 332 331 327 315 292 265 241 226 218 212 209 208 207 206 204 204 204 204 205 207 208 209 209 210 209 210 213 211 209 209 208 208 208 209 210 208 206 205 207 208 206 205 207 206 206 208 208 207 206 207 205 200 200 202 204 206 203 203 207 211 219 226 232 234 231 226 226 233 240 241 234
339 338 339 341 344 346 349 352 355 357 358 359 358 355 350 341 336 333 329 324 317 299 271 248 231 222 214 209 208 206 205 204 204 204 204 204 205 206 207 209 210 208 210 213 211 208 207 206 207 209 209 210 210 207 206 208 208 206 205 206 206 207 208 209 209 207 208 208 205 202 200 203 206 204 202 204 209 217 223 227 228 224 221 225 232 238 241 234
339 338 339 342 345 348 351 354 357 358 360 1 0 359 354 343 335 331 324 321 322 312 281 254 237 227 218 211 207 205 205 205 204 204 204 205 205 206 207 208 208 209 211 212 209 206 205 205 206 208 208 208 209 207 207 208 208 206 206 207 207 207 207 209 210 209 210 211 210 208 207 207 207 206 206 205 209 216 221 223 223 220 218 221 227 234 237 233
338 338 340 343 346 349 352 355 358 359 1 2 3 2 357 347 336 328 323 325 326 320 300 267 243 232 224 215 209 206 205 204 204 204 204 205 205 206 208 208 207 209 211 212 209 205 204 204 207 208 207 207 207 207 207 207 207 206 207 208 208 208 208 209 210 210 211 212 212 213 214 213 210 208 209 208 210 217 220 220 219 217 214 216 224 231 233 232
338 338 340 343 347 350 353 355 358 360 2 3 4 4 1 353 340 328 322 323 322 318 308 287 257 237 228 219 211 208 206 204 204 205 205 205 205 206 208 208 209 210 210 211 210 206 205 206 208 209 208 206 208 208 206 205 206 206 207 209 208 208 209 210 210 211 211 212 212 214 215 214 212 211 209 208 210 217 219 218 218 216 213 215 222 228 231 232
337 338 341 344 347 351 354 356 358 360 3 5 5 5 3 357 346 334 323 315 313 312 300 290 275 248 232 223 214 209 207 205 204 204 205 205 206 207 207 208 209 211 210 210 209 206 206 208 208 209 207 206 209 209 206 206 206 205 206 209 208 208 209 209 210 211 212 212 213 214 214 214 213 212 209 207 210 215 216 216 216 215 213 215 218 222 226 228
337 338 341 345 348 351 354 356 358 0 3 5 6 6 5 1 353 342 329 313 304 301 293 285 275 257 240 228 219 212 209 206 204 204 204 205 206 207 207 208 210 211 210 210 210 208 208 209 208 208 207 206 209 209 206 207 207 205 207 209 208 208 209 209 210 211 212 213 214 214 215 214 214 213 210 209 211 214 215 217 216 214 214 214 215 217 219 224
336 338 342 346 349 352 354 356 359 1 3 5 6 7 6 3 357 348 335 317 299 291 289 281 269 264 253 238 225 216 213 210 207 205 205 205 206 207 208 209 210 211 210 211 212 211 212 211 210 210 209 208 209 209 207 207 207 206 208 210 209 210 209 209 211 212 212 213 213 214 215 214 213 214 212 209 210 214 216 218 216 215 216 216 216 218 220 224
336 338 342 346 349 352 355 357 359 1 3 5 6 7 7 5 1 353 341 324 302 287 280 272 267 267 258 244 229 219 215 213 210 208 207 206 206 207 208 209 210 211 210 211 213 213 213 212 210 211 211 209 211 211 208 208 208 207 209 210 210 211 210 210 211 211 212 213 213 213 215 215 214 216 215 211 210 215 217 216 215 215 215 215 217 220 221 223
336 338 342 346 349 352 355 356 359 1 3 5 6 7 7 6 3 357 348 333 313 292 274 265 262 258 247 242 234 223 218 215 212 211 209 207 207 208 208 208 209 210 210 212 214 214 214 212 209 210 211 209 212 213 210 209 209 208 209 210 210 211 210 211 211 211 212 213 213 214 215 215 215 216 216 213 211 213 214 212 212 213 214 213 215 218 220 221
335 338 342 346 349 352 354 356 358 1 3 5 6 7 7 7 5 359 351 340 325 301 277 264 260 255 246 243 237 227 222 219 215 214 212 209 209 209 208 208 209 210 210 211 213 215 215 212 210 210 210 209 211 213 211 210 210 209 209 210 210 210 210 210 210 211 212 213 213 214 214 215 215 216 216 213 210 212 215 213 212 214 215 215 214 215 218 221
335 337 341 345 348 351 353 356 358 0 2 5 6 7 7 7 6 2 354 344 332 313 286 266 257 252 248 245 240 232 228 223 219 218 216 213 211 209 209 209 209 210 211 211 212 214 214 212 210 210 211 210 210 212 211 211 210 209 209 209 210 211 211 211 210 210 211 213 214 215 214 214 215 216 216 213 212 214 214 213 214 215 215 215 214 215 217 220
334 336 340 344 348 351 353 355 357 360 2 4 5 6 7 7 7 4 358 349 337 322 301 277 259 248 243 244 242 237 233 228 223 221 220 216 213 211 210 209 209 210 211 212 213 214 214 213 212 211 212 212 211 213 213 212 211 210 209 209 210 212 212 212 211 211 212 212 213 214 214 214 214 216 216 215 217 221 219 219 222 220 216 214 213 214 216 218
332 335 339 343 347 350 352 354 356 359 1 2 4 6 7 7 7 6 1 353 342 330 314 293 275 258 246 243 242 239 236 232 226 223 222 219 215 213 212 211 211 211 212 212 214 215 214 214 213 213 213 213 212 213 214 213 212 211 210 209 211 213 213 213 213 212 213 213 214 215 214 213 214 215 214 214 217 222 224 224 226 222 215 212 211 211 213 216
331 334 338 342 346 350 352 353 355 357 359 1 3 5 6 6 7 6 3 357 347 336 324 306 288 273 259 248 243 241 239 236 231 225 222 220 217 215 213 213 213 212 213 213 213 214 214 213 214 214 214 214 214 214 214 215 214 212 211 211 212 214 214 214 214 213 213 214 215 216 215 213 214 214 213 211 212 215 221 224 223 222 218 214 211 211 212 214
329 332 336 340 344 349 351 353 354 356 357 359 1 4 5 6 6 6 5 0 351 340 329 317 302 286 273 259 249 245 242 239 236 230 224 220 218 216 215 214 214 213 213 213 212 213 213 213 213 215 214 214 215 215 214 215 214 212 212 212 213 214 214 215 215 214 213 214 215 215 214 213 213 214 214 213 212 215 222 226 225 223 223 223 221 219 219 222
327 329 334 339 343 347 350 352 353 354 356 358 360 2 4 5 5 6 6 2 356 345 334 322 311 297 284 271 259 251 246 241 238 235 228 222 219 218 217 215 215 214 214 214 213 212 213 212 213 215 215 215 216 216 215 216 216 214 214 214 214 214 215 215 215 215 215 215 216 216 214 213 213 213 214 213 213 216 221 228 232 228 225 229 233 232 231 232
325 327 332 338 341 345 349 351 352 353 354 356 358 0 3 4 5 5 6 4 360 351 340 327 315 304 291 279 268 258 251 245 240 236 232 226 221 221 220 217 215 215 215 215 214 213 212 212 213 214 215 215 215 215 215 215 216 215 215 216 215 214 215 215 215 216 216 216 217 217 214 213 213 214 215 214 213 213 216 223 232 230 224 226 234 238 238 237
323 326 331 336 340 343 347 349 351 351 352 354 356 359 1 3 4 4 5 5 2 355 346 331 319 310 297 284 272 263 258 253 247 240 235 230 224 223 224 220 216 215 216 216 215 214 213 214 214 214 215 215 215 216 216 215 216 216 216 217 216 215 216 216 216 217 217 217 218 218 215 214 214 215 216 215 213 213 213 215 220 224 224 225 228 233 238 239
322 325 330 335 338 341 344 347 349 350 351 353 355 357 359 1 3 4 4 5 3 358 351 337 322 313 304 291 277 267 261 256 252 247 242 236 228 224 225 224 220 217 217 217 216 215 215 214 214 215 215 215 215 216 217 216 217 217 218 219 218 217 217 217 218 220 220 220 220 220 217 215 215 215 216 216 214 213 214 216 217 217 219 224 229 231 235 239
321 324 329 334 336 338 341 344 347 348 350 351 353 355 358 360 1 2 4 5 4 1 354 342 327 316 307 296 284 275 267 260 256 252 247 242 235 227 225 225 222 220 219 217 216 216 216 215 215 216 215 215 215 216 216 216 217 217 218 218 219 219 218 217 218 220 221 222 222 221 219 218 217 217 217 217 216 214 214 216 218 219 219 219 224 228 230 235
319 324 328 331 333 335 338 341 344 347 348 350 351 353 356 358 360 1 2 4 4 2 357 347 334 320 309 299 290 281 273 266 261 258 253 247 240 232 226 224 223 221 220 219 217 217 216 216 216 216 216 216 216 216 216 217 218 218 218 219 219 219 219 218 218 220 221 222 222 222 221 220 220 219 219 219 220 218 216 216 217 220 222 221 223 227 228 230
Height
10939 10939 10938 10937 10936 10936 10936 10936 10936 10936 10936 10936 10936 10936 10936 10936 10937 10937 10938 10938 10939 10940 10940 10941 10942 10944 10946 10948 10950 10953 10955 10958 10960 10963 10966 10971 10975 10978 10981 10985 10988 10992 10995 10998 11001 11005 11008 11011 11014 11016 11018 11020 11021 11023 11024 11026 11027 11026 11026 11027 11028 11030 11030 11029 11030 11031 11032 11032 11032 11033 11033 11033 11034 11035 11035 11035 11034 11033 11032 11030 11028 11026 11025 11023 11021 11019 11017 11014
10937 10937 10936 10935 10935 10934 10934 10933 10933 10933 10933 10933 10933 10933 10934 10934 10934 10935 10935 10936 10937 10937 10938 10939 10940 10941 10943 10945 10947 10949 10952 10954 10957 10959 10963 10968 10971 10974 10978 10981 10985 10989 10992 10995 10998 11003 11006 11009 11012 11015 11017 11018 11020 11022 11023 11025 11026 11025 11025 11026 11028 11030 11029 11029 11030 11031 11031 11032 11033 11033 11033 11033 11034 11035 11035 11035 11035 11034 11033 11032 11030 11028 11026 11025 11023 11021 11018 11016
10935 10934 10934 10933 10933 10932 10931 10931 10931 10931 10931 10930 10930 10930 10930 10931 10931 10931 10932 10933 10934 10934 10935 10936 10937 10938 10940 10942 10943 10946 10948 10951 10953 10955 10959 10964 10967 10971 10974 10978 10981 10985 10988 10991 10996 11001 11004 11007 11010 11013 11015 11017 11019 11021 11023 11024 11024 11024 11026 11027 11029 11030 11029 11029 11031 11031 11031 11032 11033 11034 11033 11034 11034 11035 11036 11036 11035 11035 11034 11033 11031 11030 11028 11026 11024 11023 11020 11018
10933 10932 10931 10931 10930 10929 10929 10929 10928 10928 10928 10927 10927 10927 10927 10927 10927 10928 10928 10929 10930 10931 10932 10932 10933 10935 10936 10938 10940 10942 10944 10947 10949 10951 10956 10960 10964 10967 10970 10974 10978 10980 10984 10990 10995 10998 11001 11005 11008 11011 11013 11016 11019 11021 11022 11022 11023 11025 11027 11029 11030 11029 11029 11030 11031 11031 11031 11032 11033 11034 11034 11034 11035 11035 11036 11036 11036 11035 11035 11034 11033 11031 11030 11028 11026 11025 11022 11020
10930 10930 10929 10928 10927 10927 10926 10926 10925 10925 10924 10924 10924 10923 10923 10923 10923 10924 10924 10925 10926 10927 10928 10929 10930 10931 10933 10934 10936 10938 10941 10943 10943 10947 10952 10956 10959 10962 10966 10970 10973 10977 10981 10987 10991 10994 10998 11002 11006 11009 11011 11014 11017 11019 11020 11021 11023 11026 11029 11029 11028 11028 11029 11030 11030 11031 11031 11031 11032 11033 11034 11034 11035 11036 11036 11037 11037 11036 11036 11035 11034 11033 11031 11030 11028 11027 11025 11023
10928 10927 10926 10925 10924 10923 10923 10922 10922 10921 10921 10920 10920 10920 10919 10919 10919 10919 10920 10921 10921 10922 10923 10924 10925 10927 10929 10930 10932 10934 10937 10937 10937 10944 10948 10951 10955 10958 10961 10965 10969 10973 10978 10983 10987 10991 10995 10999 11003 11006 11010 11013 11015 11016 11018 11021 11023 11025 11028 11027 11026 11028 11028 11029 11030 11030 11031 11031 11031 11032 11033 11034 11035 11036 11036 11037 11037 11036 11036 11036 11035 11034 11033 11032 11030 11029 11027 11025
10925 10924 10923 10922 10921 10920 10919 10918 10918 10917 10917 10916 10915 10915 10914 10914 10914 10914 10915 10915 10916 10917 10918 10919 10920 10922 10924 10926 10928 10930 10932 10932 10935 10942 10944 10948 10951 10953 10957 10961 10964 10969 10974 10979 10983 10988 10992 10996 11000 11004 11008 11011 11012 11013 11015 11019 11021 11024 11026 11025 11025 11027 11028 11029 11028 11028 11030 11030 11031 11032 11033 11034 11035 11036 11037 11037 11037 11037 11037 11037 11036 11035 11034 11033 11032 11030 11029 11027
10922 10921 10919 10918 10917 10916 10915 10914 10913 10913 10912 10912 10911 10910 10910 10909 10908 10909 10909 10910 10911 10912 10912 10913 10914 10917 10918 10921 10923 10925 10929 10929 10930 10936 10938 10943 10946 10947 10952 10956 10961 10965 10970 10976 10980 10984 10988 10993 10997 11001 11006 11008 11010 11012 11014 11017 11020 11023 11025 11023 11023 11026 11026 11025 11023 11025 11028 11030 11030 11032 11033 11034 11035 11036 11037 11037 11038 11037 11037 11037 11037 11036 11035 11034 11033 11032 11030 11029
10919 10917 10915 10914 10913 10912 10911 10910 10909 10908 10907 10907 10906 10905 10905 10904 10903 10903 10903 10904 10905 10905 10906 10907 10908 10911 10912 10915 10917 10921 10926 10922 10923 10931 10934 10937 10940 10942 10947 10952 10957 10961 10966 10971 10975 10979 10984 10989 10994 10998 11002 11004 11007 11010 11012 11015 11017 11020 11022 11022 11022 11023 11022 11021 11022 11025 11027 11029 11030 11031 11033 11034 11035 11036 11037 11038 11038 11038 11038 11037 11037 11037 11036 11035 11034 11033 11032 11030
10915 10913 10911 10910 10908 10907 10906 10905 10904 10903 10902 10901 10900 10900 10899 10898 10898 10896 10896 10897 10897 10898 10899 10900 10902 10903 10905 10909 10911 10917 10921 10915 10918 10927 10928 10930 10934 10937 10942 10947 10952 10956 10961 10965 10970 10975 10981 10986 10991 10995 10998 11000 11004 11007 11010 11013 11014 11017 11020 11021 11021 11021 11021 11022 11023 11024 11025 11028 11029 11030 11032 11034 11035 11036 11037 11038 11038 11038 11038 11038 11037 11037 11037 11036 11035 11034 11033 11032
10911 10909 10907 10906 10904 10902 10901 10900 10898 10897 10896 10895 10894 10893 10892 10891 10891 10889 10889 10889 10889 10890 10891 10892 10894 10895 10899 10902 10905 10913 10915 10908 10911 10918 10920 10924 10928 10932 10937 10942 10946 10951 10956 10960 10965 10972 10977 10981 10986 10991 10994 10997 11001 11003 11007 11009 11011 11013 11016 11017 11018 11019 11022 11022 11022 11022 11024 11027 11029 11030 11032 11033 11034 11035 11036 11037 11038 11038 11038 11038 11038 11038 11037 11037 11036 11036 11034 11033
10907 10905 10903 10901 10899 10898 10896 10894 10893 10891 10890 10888 10887 10886 10884 10883 10882 10881 10880 10879 10880 10881 10882 10884 10885 10887 10890 10893 10900 10909 10906 10898 10902 10910 10915 10918 10922 10927 10931 10936 10941 10946 10951 10955 10961 10967 10972 10977 10982 10986 10989 10993 10997 11000 11003 11005 11006 11010 11013 11013 11014 11017 11019 11020 11020 11021 11023 11026 11028 11030 11031 11032 11033 11034 11036 11036 11037 11038 11038 11038 11038 11038 11038 11037 11037 11037 11036 11034
10903 10901 10899 10896 10894 10892 10890 10889 10887 10885 10883 10881 10879 10877 10875 10874 10872 10871 10870 10869 10869 10870 10872 10874 10875 10878 10881 10886 10894 10897 10892 10890 10897 10904 10909 10912 10917 10922 10925 10931 10936 10940 10945 10950 10955 10961 10966 10972 10976 10981 10985 10989 10993 10995 10998 11000 11001 11006 11010 11010 11012 11013 11015 11018 11019 11020 11023 11025 11027 11029 11031 11032 11032 11033 11035 11036 11036 11037 11038 11038 11038 11038 11038 11038 11038 11037 11037 11036
10899 10896 10894 10892 10889 10887 10885 10883 10880 10878 10876 10873 10871 10868 10866 10863 10861 10859 10858 10858 10858 10859 10860 10862 10865 10868 10871 10877 10882 10883 10885 10887 10891 10897 10902 10906 10910 10915 10919 10925 10930 10934 10940 10944 10950 10955 10960 10966 10971 10976 10980 10984 10988 10991 10994 10996 10998 11003 11005 11006 11009 11010 11011 11015 11018 11020 11023 11024 11026 11028 11030 11032 11032 11033 11033 11034 11035 11036 11038 11038 11038 11038 11039 11038 11038 11038 11037 11037
10894 10891 10889 10886 10884 10881 10879 10876 10874 10871 10868 10865 10862 10858 10855 10852 10849 10848 10846 10845 10846 10846 10848 10850 10853 10856 10861 10866 10869 10875 10879 10880 10885 10891 10895 10899 10903 10908 10914 10919 10923 10929 10934 10939 10945 10948 10953 10960 10965 10970 10975 10980 10984 10987 10991 10994 10996 11000 11001 11003 11006 11008 11009 11012 11015 11018 11021 11023 11025 11026 11028 11030 11031 11032 11033 11034 11035 11036 11037 11037 11038 11038 11039 11038 11038 11038 11038 11038
10889 10886 10883 10881 10878 10875 10872 10870 10867 10864 10860 10856 10852 10847 10844 10840 10837 10834 10832 10831 10831 10832 10834 10836 10840 10845 10850 10854 10859 10865 10869 10872 10879 10883 10886 10891 10896 10902 10907 10912 10917 10923 10928 10934 10938 10941 10949 10955 10960 10966 10971 10977 10980 10983 10987 10991 10994 10997 10999 11000 11004 11006 11006 11009 11013 11016 11018 11021 11023 11025 11027 11029 11030 11031 11032 11033 11034 11035 11036 11036 11037 11038 11038 11038 11038 11038 11038 11038
10884 10881 10878 10875 10872 10869 10866 10863 10860 10856 10852 10847 10841 10836 10832 10827 10823 10819 10817 10816 10816 10817 10820 10823 10827 10832 10837 10843 10849 10856 10861 10867 10871 10873 10878 10884 10889 10894 10899 10904 10910 10916 10922 10927 10930 10936 10945 10950 10955 10962 10968 10972 10976 10980 10984 10988 10991 10994 10996 10997 11000 11002 11004 11006 11010 11013 11016 11018 11020 11023 11026 11027 11028 11029 11031 11032 11033 11034 11035 11035 11036 11038 11038 11038 11038 11038 11038 11038
10878 10875 10872 10869 10866 10863 10860 10856 10852 10848 10843 10837 10831 10825 10820 10814 10809 10804 10801 10800 10800 10802 10805 10809 10813 10819 10826 10833 10840 10847 10852 10856 10858 10864 10870 10876 10881 10886 10891 10898 10904 10910 10915 10920 10924 10932 10939 10943 10949 10956 10963 10968 10972 10976 10980 10984 10987 10990 10991 10993 10997 11000 11003 11006 11008 11011 11015 11017 11019 11021 11024 11025 11026 11027 11030 11031 11032 11033 11033 11033 11035 11037 11037 11038 11038 11038 11038 11039
10873 10870 10866 10863 10860 10857 10853 10849 10844 10839 10833 10827 10820 10814 10807 10801 10795 10789 10786 10785 10785 10787 10790 10794 10799 10805 10813 10819 10826 10834 10839 10842 10847 10855 10862 10868 10873 10878 10884 10892 10897 10903 10908 10913 10919 10926 10931 10937 10944 10951 10957 10963 10967 10971 10975 10978 10981 10984 10986 10989 10993 10996 11000 11004 11007 11010 11013 11014 11017 11019 11021 11023 11024 11026 11028 11029 11030 11031 11032 11032 11033 11035 11036 11037 11037 11037 11038 11038
10867 10864 10861 10858 10854 10850 10846 10841 10836 10830 10824 10817 10810 10802 10794 10787 10781 10775 10772 10770 10770 10772 10775 10780 10785 10792 10800 10808 10816 10822 10825 10831 10839 10847 10854 10860 10865 10871 10877 10883 10889 10896 10902 10907 10914 10920 10925 10932 10939 10945 10950 10955 10960 10964 10968 10971 10976 10980 10983 10986 10989 10993 10998 11003 11007 11010 11011 11012 11015 11017 11019 11022 11023 11024 11026 11027 11028 11029 11030 11031 11031 11033 11035 11035 11036 11037 11037 11038
10862 10859 10856 10852 10848 10844 10840 10834 10828 10821 10815 10808 10800 10791 10782 10775 10768 10763 10760 10758 10758 10759 10762 10766 10772 10779 10788 10795 10801 10807 10814 10823 10831 10838 10845 10851 10856 10863 10869 10875 10882 10889 10894 10901 10908 10914 10920 10927 10933 10938 10942 10948 10954 10957 10960 10965 10971 10976 10979 10983 10987 10991 10996 11000 11004 11008 11009 11009 11013 11015 11017 11019 11020 11021 11023 11024 11026 11028 11029 11030 11030 11031 11033 11034 11035 11036 11037 11037
10857 10854 10851 10847 10843 10839 10833 10827 10821 10814 10806 10798 10790 10781 10771 10763 10757 10752 10750 10748 10748 10748 10750 10754 10759 10766 10774 10780 10787 10796 10805 10813 10821 10828 10835 10841 10847 10854 10860 10868 10875 10881 10887 10894 10902 10908 10914 10920 10926 10930 10935 10942 10947 10949 10953 10961 10968 10972 10975 10979 10984 10988 10992 10996 11000 11003 11004 11006 11010 11013 11015 11016 11017 11018 11020 11022 11025 11027 11028 11028 11029 11029 11031 11032 11034 11035 11036 11036
10852 10849 10846 10842 10838 10833 10828 10821 10814 10807 10799 10790 10781 10772 10763 10755 10748 10744 10742 10740 10740 10740 10741 10744 10749 10755 10762 10769 10777 10786 10794 10803 10811 10819 10826 10832 10839 10847 10854 10862 10868 10874 10881 10889 10896 10902 10907 10912 10916 10921 10928 10935 10939 10943 10952 10961 10965 10966 10970 10975 10980 10984 10988 10992 10996 10998 11000 11003 11007 11011 11013 11012 11012 11014 11016 11019 11023 11026 11027 11026 11026 11027 11029 11031 11032 11033 11034 11035
10848 10845 10841 10838 10833 10828 10822 10815 10808 10800 10791 10783 10773 10764 10755 10747 10742 10738 10735 10734 10733 10733 10734 10737 10740 10746 10752 10758 10767 10776 10785 10794 10802 10810 10818 10826 10833 10842 10848 10854 10861 10867 10875 10883 10889 10894 10901 10905 10908 10914 10922 10929 10933 10941 10951 10955 10957 10960 10965 10970 10975 10980 10984 10988 10992 10995 10997 11000 11003 11006 11007 11007 11009 11011 11013 11017 11020 11023 11024 11024 11025 11026 11028 11029 11031 11032 11033 11034
10844 10840 10837 10833 10829 10823 10817 10809 10801 10793 10784 10775 10766 10757 10748 10741 10736 10733 10731 10729 10728 10727 10728 10731 10734 10738 10743 10750 10758 10767 10776 10784 10793 10802 10810 10818 10828 10836 10840 10846 10854 10861 10868 10874 10880 10888 10893 10895 10901 10908 10917 10925 10930 10937 10943 10945 10950 10956 10959 10965 10970 10975 10980 10985 10989 10991 10994 10998 11000 11002 11003 11005 11008 11010 11012 11015 11017 11019 11021 11022 11024 11026 11027 11028 11029 11031 11032 11033
10840 10836 10833 10829 10824 10819 10812 10804 10796 10787 10777 10768 10759 10750 10743 10736 10732 10729 10727 10724 10723 10723 10723 10725 10728 10732 10737 10744 10750 10758 10765 10773 10783 10793 10801 10811 10821 10828 10833 10841 10846 10851 10859 10866 10874 10881 10884 10890 10899 10906 10914 10920 10925 10931 10935 10940 10948 10950 10953 10962 10968 10973 10979 10983 10986 10988 10991 10994 10996 10997 11000 11003 11006 11008 11010 11013 11014 11016 11019 11020 11023 11024 11025 11026 11028 11029 11030 11032
10836 10833 10829 10825 10820 10814 10808 10800 10791 10782 10772 10763 10754 10745 10738 10732 10728 10726 10723 10721 10720 10719 10720 10721 10724 10727 10732 10737 10743 10750 10759 10769 10777 10784 10792 10803 10811 10818 10826 10833 10838 10845 10856 10864 10871 10875 10878 10886 10893 10899 10908 10914 10919 10926 10932 10938 10942 10942 10950 10960 10965 10972 10978 10980 10982 10985 10987 10990 10991 10994 10997 11001 11004 11006 11009 11010 11011 11013 11015 11017 11020 11022 11023 11025 11027 11028 11029 11030
10832 10829 10825 10821 10816 10810 10804 10796 10787 10778 10768 10759 10750 10741 10735 10730 10726 10723 10721 10719 10717 10716 10717 10718 10720 10723 10727 10732 10737 10745 10754 10763 10769 10777 10787 10796 10802 10809 10816 10823 10831 10841 10851 10858 10864 10865 10869 10877 10883 10894 10905 10909 10914 10921 10927 10932 10932 10937 10948 10956 10962 10970 10974 10976 10979 10981 10984 10987 10989 10992 10995 10998 11001 11004 11007 11008 11009 11010 11012 11015 11017 11018 11021 11023 11025 11026 11027 11029
10829 10826 10822 10817 10812 10807 10801 10793 10784 10775 10765 10755 10746 10738 10732 10727 10724 10721 10719 10717 10715 10714 10714 10715 10717 10720 10723 10727 10732 10739 10746 10754 10762 10773 10782 10790 10797 10803 10810 10820 10828 10835 10843 10850 10853 10853 10860 10872 10883 10895 10901 10901 10907 10914 10919 10923 10925 10935 10947 10952 10961 10968 10969 10972 10975 10978 10982 10985 10987 10989 10992 10995 10998 11000 11003 11006 11007 11008 11010 11012 11014 11016 11019 11021 11023 11024 11026 11027
10826 10823 10819 10814 10808 10803 10797 10790 10781 10772 10763 10753 10743 10735 10730 10725 10722 10719 10717 10716 10714 10713 10713 10713 10715 10717 10719 10723 10728 10733 10741 10751 10760 10768 10775 10784 10792 10799 10807 10816 10822 10829 10840 10842 10841 10847 10861 10873 10881 10888 10890 10892 10899 10905 10913 10918 10923 10935 10944 10950 10958 10961 10961 10965 10968 10973 10977 10980 10982 10985 10988 10991 10993 10996 10999 11001 11004 11005 11007 11009 11012 11014 11017 11019 11021 11022 11024 11026
10823 10820 10815 10810 10805 10799 10793 10786 10778 10770 10761 10752 10742 10734 10728 10724 10721 10718 10716 10715 10713 10713 10712 10712 10713 10714 10717 10720 10724 10730 10737 10746 10753 10759 10767 10777 10785 10793 10803 10810 10814 10825 10833 10832 10836 10850 10862 10870 10877 10883 10885 10888 10894 10902 10911 10915 10920 10932 10940 10945 10951 10951 10952 10957 10961 10967 10970 10972 10976 10979 10982 10985 10987 10991 10994 10997 11001 11003 11005 11007 11009 11011 11014 11016 11018 11019 11022 11024
10821 10817 10813 10808 10802 10796 10790 10783 10775 10767 10759 10750 10741 10733 10727 10722 10720 10718 10716 10714 10713 10712 10711 10711 10712 10713 10715 10718 10721 10727 10733 10739 10745 10753 10762 10769 10775 10785 10796 10801 10808 10819 10822 10822 10832 10846 10854 10864 10871 10876 10879 10884 10891 10901 10908 10909 10915 10926 10932 10935 10939 10941 10946 10951 10956 10961 10963 10966 10971 10975 10977 10980 10983 10987 10990 10994 10998 11001 11004 11005 11006 11008 11011 11013 11014 11016 11019 11022
10818 10814 10810 10805 10800 10794 10787 10780 10773 10765 10757 10749 10740 10732 10726 10722 10719 10717 10716 10714 10713 10712 10711 10710 10711 10712 10713 10716 10719 10724 10729 10734 10741 10748 10756 10763 10771 10781 10786 10791 10802 10811 10810 10811 10823 10836 10848 10857 10860 10862 10866 10873 10883 10891 10895 10899 10908 10918 10922 10925 10930 10934 10940 10945 10950 10955 10957 10961 10967 10970 10973 10976 10980 10983 10986 10991 10995 10998 11001 11002 11003 11006 11008 11010 11011 11013 11017 11019
10816 10812 10808 10803 10797 10792 10785 10779 10772 10765 10757 10748 10740 10732 10726 10721 10719 10717 10715 10714 10712 10711 10711 10710 10710 10711 10712 10714 10718 10721 10724 10729 10737 10744 10751 10758 10767 10775 10778 10786 10795 10798 10798 10807 10820 10831 10840 10845 10846 10849 10855 10865 10872 10876 10882 10891 10902 10910 10915 10918 10924 10930 10936 10939 10944 10949 10952 10957 10963 10967 10971 10974 10976 10979 10983 10988 10992 10995 10998 10999 11001 11003 11005 11006 11008 11011 11014 11017
10814 10810 10805 10800 10795 10790 10784 10777 10771 10764 10757 10748 10740 10732 10726 10721 10718 10716 10715 10713 10712 10711 10711 10710 10710 10710 10711 10713 10715 10718 10721 10727 10733 10740 10747 10754 10761 10766 10772 10782 10787 10787 10793 10805 10817 10827 10835 10838 10838 10841 10849 10860 10863 10865 10876 10888 10895 10902 10908 10911 10919 10926 10930 10934 10940 10944 10948 10953 10959 10964 10968 10970 10972 10976 10980 10984 10988 10991 10995 10997 10998 11000 11001 11003 11006 11009 11012 11014
10811 10808 10803 10798 10793 10788 10782 10776 10770 10763 10756 10748 10740 10732 10726 10722 10718 10716 10714 10713 10712 10711 10710 10710 10709 10709 10710 10711 10712 10715 10719 10724 10728 10734 10741 10747 10753 10759 10767 10774 10776 10779 10789 10798 10806 10817 10824 10822 10824 10832 10844 10854 10856 10861 10875 10882 10884 10893 10900 10904 10912 10917 10921 10928 10934 10938 10943 10949 10955 10961 10964 10965 10967 10973 10977 10980 10984 10987 10991 10993 10995 10997 10998 11001 11004 11007 11009 11011
10809 10806 10801 10797 10791 10786 10780 10775 10769 10762 10755 10748 10741 10733 10726 10721 10717 10715 10714 10712 10711 10711 10710 10710 10709 10709 10709 10710 10711 10714 10717 10719 10722 10726 10732 10738 10744 10752 10758 10762 10766 10774 10786 10796 10804 10811 10812 10812 10820 10831 10839 10847 10851 10859 10871 10876 10881 10891 10894 10895 10901 10907 10915 10924 10928 10933 10940 10946 10953 10958 10960 10960 10965 10970 10973 10976 10979 10983 10987 10990 10992 10993 10995 10998 11001 11003 11006 11008
10807 10804 10799 10795 10790 10784 10779 10773 10767 10760 10753 10747 10740 10733 10727 10721 10717 10714 10713 10712 10711 10710 10710 10710 10709 10709 10709 10709 10711 10713 10714 10716 10719 10722 10726 10731 10739 10745 10750 10757 10764 10774 10787 10797 10802 10807 10810 10817 10828 10834 10838 10846 10850 10856 10866 10871 10878 10888 10887 10889 10898 10905 10913 10920 10924 10931 10937 10941 10948 10952 10951 10954 10960 10964 10967 10971 10975 10978 10982 10984 10987 10989 10992 10995 10998 11000 11003 11005
10805 10802 10798 10793 10789 10783 10778 10772 10766 10760 10753 10746 10739 10733 10727 10721 10717 10714 10712 10711 10710 10710 10710 10709 10708 10709 10709 10709 10709 10710 10712 10714 10717 10719 10723 10729 10735 10739 10745 10754 10762 10772 10784 10791 10794 10799 10805 10814 10825 10832 10838 10847 10850 10854 10862 10867 10872 10879 10880 10888 10899 10903 10909 10915 10918 10923 10927 10932 10939 10941 10942 10949 10955 10956 10960 10967 10970 10973 10977 10980 10983 10986 10988 10991 10994 10997 10999 11001
10802 10800 10796 10791 10787 10782 10777 10771 10766 10760 10754 10747 10740 10733 10727 10722 10717 10714 10712 10711 10710 10709 10709 10708 10708 10708 10708 10708 10708 10709 10710 10711 10714 10718 10721 10726 10731 10734 10742 10752 10760 10771 10781 10785 10789 10795 10800 10808 10820 10825 10832 10842 10845 10848 10855 10860 10865 10871 10875 10883 10891 10895 10903 10910 10913 10918 10922 10925 10930 10933 10937 10945 10949 10950 10956 10963 10967 10970 10974 10978 10981 10982 10984 10988 10991 10994 10996 10998
10800 10797 10794 10790 10785 10781 10777 10771 10765 10759 10753 10747 10740 10734 10728 10722 10717 10713 10711 10710 10709 10709 10708 10707 10707 10707 10707 10707 10707 10708 10709 10710 10713 10716 10718 10722 10725 10731 10741 10750 10759 10767 10773 10778 10783 10785 10788 10800 10811 10816 10823 10831 10833 10837 10845 10852 10857 10864 10870 10877 10883 10887 10891 10895 10901 10908 10913 10917 10922 10926 10931 10938 10943 10948 10954 10961 10965 10969 10974 10977 10977 10978 10980 10984 10988 10991 10994 10995
10797 10795 10792 10788 10783 10779 10775 10770 10765 10759 10753 10746 10741 10735 10729 10723 10718 10714 10710 10709 10708 10707 10707 10706 10706 10706 10706 10705 10705 10707 10708 10710 10712 10712 10715 10719 10724 10732 10741 10748 10755 10759 10761 10765 10766 10766 10777 10793 10804 10811 10817 10820 10822 10829 10837 10843 10850 10857 10863 10869 10875 10878 10881 10887 10894 10900 10904 10909 10914 10918 10924 10932 10940 10946 10951 10959 10965 10968 10972 10974 10973 10975 10979 10983 10987 10990 10991 10993
10795 10793 10789 10785 10781 10777 10773 10768 10764 10758 10753 10747 10742 10736 10730 10724 10718 10714 10710 10708 10706 10706 10705 10705 10705 10705 10704 10704 10704 10705 10706 10708 10709 10711 10714 10719 10725 10732 10737 10741 10746 10748 10749 10754 10758 10767 10783 10796 10802 10807 10809 10813 10822 10828 10831 10835 10842 10847 10854 10862 10868 10871 10876 10883 10888 10892 10896 10900 10904 10909 10917 10927 10935 10939 10949 10962 10965 10963 10966 10969 10969 10973 10977 10981 10986 10988 10989 10991
10792 10790 10787 10783 10779 10775 10771 10766 10762 10757 10753 10748 10742 10737 10731 10725 10719 10714 10710 10707 10705 10704 10703 10703 10703 10703 10703 10702 10703 10704 10705 10706 10707 10710 10712 10717 10723 10727 10730 10735 10737 10738 10744 10754 10764 10775 10784 10790 10797 10802 10806 10813 10818 10820 10823 10829 10835 10841 10851 10861 10864 10865 10870 10876 10880 10886 10891 10896 10901 10904 10911 10920 10926 10931 10946 10960 10961 10956 10958 10961 10963 10969 10975 10980 10983 10984 10987 10989
10789 10787 10785 10781 10777 10773 10769 10765 10760 10756 10752 10747 10743 10737 10731 10725 10720 10714 10710 10706 10704 10702 10701 10701 10701 10701 10701 10701 10701 10702 10703 10704 10706 10708 10710 10714 10718 10721 10725 10728 10730 10736 10745 10753 10760 10767 10772 10781 10789 10794 10799 10804 10805 10809 10816 10822 10831 10842 10852 10858 10856 10857 10864 10868 10872 10878 10884 10890 10894 10895 10903 10916 10923 10929 10942 10951 10951 10948 10948 10952 10959 10966 10973 10978 10980 10981 10983 10986
10787 10785 10782 10779 10775 10771 10767 10763 10759 10755 10751 10746 10742 10737 10731 10726 10720 10715 10710 10706 10703 10700 10699 10699 10699 10699 10699 10698 10699 10699 10700 10702 10703 10705 10708 10710 10713 10716 10719 10722 10725 10732 10738 10743 10750 10756 10762 10774 10781 10783 10790 10796 10799 10806 10814 10819 10827 10837 10842 10844 10846 10851 10857 10860 10864 10870 10876 10879 10878 10881 10896 10912 10920 10928 10937 10944 10947 10947 10945 10948 10957 10968 10974 10975 10976 10978 10980 10982
10784 10782 10780 10777 10773 10769 10765 10761 10757 10754 10750 10745 10741 10736 10731 10726 10720 10715 10710 10706 10702 10699 10698 10697 10697 10696 10696 10696 10696 10696 10697 10699 10701 10702 10704 10707 10709 10711 10712 10714 10719 10726 10731 10735 10741 10745 10753 10764 10770 10775 10783 10789 10794 10803 10810 10816 10822 10828 10831 10834 10837 10843 10846 10849 10856 10864 10868 10869 10869 10879 10895 10906 10913 10921 10928 10936 10944 10947 10947 10948 10955 10965 10973 10973 10971 10972 10974 10977
10781 10779 10777 10774 10771 10767 10764 10760 10756 10752 10748 10744 10740 10736 10731 10726 10721 10715 10710 10706 10702 10699 10697 10695 10695 10695 10694 10694 10693 10693 10694 10696 10698 10699 10700 10703 10705 10706 10707 10710 10715 10721 10726 10728 10730 10737 10747 10755 10761 10767 10773 10779 10788 10795 10800 10807 10812 10818 10822 10823 10826 10832 10834 10839 10849 10854 10858 10862 10866 10875 10889 10899 10908 10915 10918 10926 10935 10941 10944 10947 10951 10959 10967 10969 10965 10963 10965 10972
10779 10776 10774 10771 10768 10764 10761 10758 10755 10751 10746 10742 10738 10735 10731 10726 10721 10716 10710 10706 10702 10698 10695 10694 10693 10692 10692 10692 10691 10691 10691 10693 10694 10695 10696 10698 10701 10702 10704 10707 10711 10715 10717 10718 10726 10737 10745 10749 10755 10760 10765 10774 10783 10787 10792 10798 10803 10808 10812 10812 10818 10826 10831 10839 10847 10848 10851 10857 10859 10865 10881 10893 10902 10908 10912 10920 10928 10934 10938 10943 10948 10954 10961 10965 10964 10960 10961 10964
10776 10774 10771 10768 10765 10762 10759 10756 10753 10749 10745 10741 10737 10733 10729 10725 10720 10716 10711 10706 10701 10697 10694 10692 10690 10690 10689 10689 10689 10689 10690 10690 10690 10691 10693 10694 10696 10699 10700 10702 10705 10708 10710 10715 10726 10734 10737 10742 10749 10754 10759 10769 10776 10779 10784 10790 10793 10799 10803 10806 10814 10822 10829 10839 10844 10844 10849 10853 10855 10865 10880 10891 10896 10900 10905 10912 10920 10927 10932 10937 10944 10952 10959 10964 10964 10962 10959 10956
10773 10771 10768 10766 10763 10760 10757 10754 10751 10747 10744 10739 10735 10732 10728 10724 10720 10715 10711 10706 10701 10697 10693 10691 10689 10688 10687 10687 10686 10686 10687 10687 10687 10688 10689 10690 10691 10693 10695 10697 10700 10703 10706 10712 10719 10721 10725 10734 10741 10744 10751 10759 10763 10765 10772 10778 10782 10788 10793 10799 10808 10817 10824 10832 10835 10838 10843 10848 10854 10865 10877 10886 10890 10893 10898 10905 10912 10920 10927 10933 10942 10951 10958 10963 10962 10959 10956 10952
10770 10768 10765 10763 10760 10757 10754 10751 10748 10745 10741 10738 10734 10730 10726 10722 10718 10714 10710 10706 10701 10696 10692 10689 10687 10686 10685 10684 10684 10684 10684 10684 10684 10684 10685 10686 10687 10688 10691 10692 10694 10697 10701 10705 10708 10712 10720 10728 10732 10736 10742 10748 10750 10756 10765 10772 10776 10781 10787 10795 10803 10809 10816 10822 10826 10829 10833 10840 10849 10860 10869 10878 10882 10884 10892 10900 10906 10914 10923 10931 10939 10946 10951 10956 10957 10954 10950 10948